Regional Weather Roundup
Issued by NWS

Home | Current Version | Previous Version | Text Only | Print | Product List | Glossary On
Versions: 1 2 3 4 5 6 7 8 9 10 11 12 13 14 15 16 17 18 19 20 21 22 23 24 25 26 27 28 29 30 31 32 33 34 35 36 37 38 39 40 41 42 43 44 45 46 47 48 49 50
528
ASUS43 KMKX 151120
RWRWI

WISCONSIN REGIONAL WEATHER ROUNDUP
NATIONAL WEATHER SERVICE MILWAUKEE/SULLIVAN WI
500 AM CST FRI DEC 15 2017

NOTE: "FAIR" INDICATES FEW OR NO CLOUDS BELOW 12,000 FEET WITH NO
SIGNIFICANT WEATHER AND/OR OBSTRUCTIONS TO VISIBILITY.

WIZ001-002-006>008-014>016-023>028-151200-
NORTHWEST WISCONSIN

CITY           SKY/WX    TMP DP  RH WIND       PRES   REMARKS
SUPERIOR ARPT  FLURRIES  14   8  78 W7        29.91S WCI   4
ASHLAND        FLURRIES  14   9  80 SW8       29.86F WCI   3
HAYWARD        FLURRIES  14   8  77 W5        29.85F WCI   6
SIREN          CLOUDY    15   8  73 NW10      29.91R WCI   2
CUMBERLAND     CLOUDY    12   5  73 NW7       29.87S WCI   2
RICE LAKE      CLOUDY    16  10  77 NW7       29.89F WCI   7
CHETEK         CLOUDY    16  10  77 N7G17     29.88S WCI   7
LADYSMITH      CLOUDY    16  10  78 W8        29.86S WCI   5
EAU CLAIRE     CLOUDY    19  12  74 W8        29.89S WCI   9
MENOMONIE      LGT SNOW  18  14  84 W5        29.90F WCI  11
NEW RICHMOND   CLOUDY    20  14  77 NW9       29.90F WCI   9
OSCEOLA        CLOUDY    19  13  77 N6        29.94S WCI  11
$$

WIZ003>005-009-010-017-018-151200-
NORTH CENTRAL WISCONSIN

CITY           SKY/WX    TMP DP  RH WIND       PRES   REMARKS
MANITOWISH WTR FLURRIES  11   9  89 W7        29.77S WCI   1
ARBOR VITAE    LGT SNOW  14  10  85 NW5       29.76S WCI   6
WOODRUFF       LGT SNOW  14  10  85 NW5       29.76S WCI   6
RHINELANDER    CLOUDY    12   8  84 NW7       29.76F WCI   1
EAGLE RIVER    PTCLDY     9   4  82 W7        29.74F WCI  -2
LAND O LAKES   FLURRIES  10   7  89 W5        29.75F WCI   1
PHILLIPS       FLURRIES  12  10  89 NW5       29.80S WCI   4
TOMAHAWK       CLOUDY    13   8  82 NW6       29.79F WCI   4
MEDFORD        FLURRIES  16  11  83 NW12      29.79S WCI   2
MERRILL        FLURRIES  16  12  82 NW8       29.80S WCI   6
$$

WIZ029-030-035-036-043>047-151200-
CENTRAL WISCONSIN

CITY           SKY/WX    TMP DP  RH WIND       PRES   REMARKS
WAUSAU         FLURRIES  17  14  88 NW7       29.79S WCI   8
MOSINEE        FLURRIES  19  16  86 W13       29.80F WCI   7
MARSHFIELD     CLOUDY    19  14  81 NW14      29.81S WCI   6
STEVENS POINT  FLURRIES  17  14  88 W6        29.83S WCI   9
WAUPACA        FLURRIES  22  16  78 W9        29.84S WCI  12
WAUTOMA        FLURRIES  20  16  84 W8        29.85F WCI  10
WISC RAPIDS    FLURRIES  20  14  77 W10       29.85F WCI   9
CAMP DOUGLAS   NOT AVBL
$$

WIZ011>013-019>022-031-037>040-048>050-151200-
NORTHEAST WISCONSIN

CITY           SKY/WX    TMP DP  RH WIND       PRES   REMARKS
ANTIGO         FLURRIES  15  11  87 NW10      29.76S WCI   2
SHAWANO        CLOUDY    21  15  78 W6        29.82S WCI  13
OCONTO         CLOUDY    19  15  82 W7        29.81S WCI  10
STURGEON BAY   LGT SNOW  20  17  88 W8        29.79F FOG     WCI  10
GREEN BAY      CLOUDY    20  13  74 W12       29.82F WCI   8
MANITOWOC      LGT SNOW  21  17  84 W10       29.83F FOG     WCI  10
APPLETON       CLOUDY    19  14  79 W8        29.81S WCI   9
CLINTONVILLE   FLURRIES  19  14  79 W8        29.82F WCI   9
OSHKOSH        CLOUDY    21  15  78 W7        29.84S WCI  12
$$

WIZ032>034-041-042-053>061-151200-
SOUTHWEST WISCONSIN

CITY           SKY/WX    TMP DP  RH WIND       PRES   REMARKS
LA CROSSE      MOCLDY    25  14  63 NW16      29.91F WCI  12
SPARTA         CLOUDY    23  17  76 W10       29.90S WCI  12
VIROQUA        CLOUDY    22  15  74 NW16      29.87F WCI   9
BOSCOBEL       CLOUDY    26  16  65 W9G18     29.93S WCI  17
PRAIRIE DU CHI MOCLDY    24  17  73 W10       29.94F WCI  14
PLATTEVILLE    CLOUDY    25  18  75 W16       29.91F WCI  12
$$

WIZ056-057-062-063-064-067-068-151200-
SOUTH CENTRAL WISCONSIN

CITY           SKY/WX    TMP DP  RH WIND       PRES   REMARKS
REEDSBURG      FLURRIES  23  16  75 W7        29.87S WCI  14
BARABOO/DELLS  FLURRIES  21  16  81 W5        29.87S WCI  15
LONE ROCK      CLOUDY    25  15  66 NW16      29.90F WCI  12
MINERAL POINT  CLOUDY    27  19  74 W14G22    29.88S WCI  15
MADISON        CLOUDY    22  16  78 VRB3      29.88F
MIDDLETON      CLOUDY    24  18  78 W9        29.88F WCI  14
WATERTOWN      FLURRIES  22  18  83 W10G16    29.86F WCI  11
MONROE         CLOUDY    25  18  74 W14G20    29.88F WCI  13
JANESVILLE     CLOUDY    27  18  69 W9        29.89F WCI  17
$$

WIZ051-052-058>065-066-070>072-151200-
SOUTHEAST WISCONSIN

CITY           SKY/WX    TMP DP  RH WIND       PRES   REMARKS
MILWAUKEE      FLURRIES  26  18  71 W8        29.86F WCI  18
WAUKESHA       CLOUDY    23  18  80 W12G22    29.86F WCI  12
MILWAUKEE/TIMM CLOUDY    25  18  74 W8        29.86F WCI  16
RACINE         CLOUDY    24  18  77 W7        29.88F WCI  16
BURLINGTON     CLOUDY    24  19  83 W14G23    29.87S WCI  11
KENOSHA        CLOUDY    25  17  72 W14G23    29.87F WCI  13
FOND DU LAC    MIX PCPN  22  15  75 W7        29.84F WCI  13
SHEBOYGAN      LGT SNOW  21  16  81 W12       29.83F WCI   9
WEST BEND      CLOUDY    23  19  86 W10       29.84S WCI  12
JUNEAU         FLURRIES  21  16  81 W7        29.86F WCI  12
$$

LSZ147-162-151200-
LAKE SUPERIOR

STATION/POSITION TIME  TEMP    WIND        PRES    WAVE
                       AIR SEA DIR/SP/G            HT/PER
                 (UTC) (F)     (DEG/KT/KT) (MB)    (FT/S)
DEVILS ISLAND    1100   17     300/ 12/ 15 1011.9F
SAXON HARBOR     1040   16                 1010.8S
$$

LMZ867-665-643>646-151200-
LAKE MICHIGAN

STATION/POSITION TIME  TEMP    WIND        PRES    WAVE
                       AIR SEA DIR/SP/G            HT/PER
                 (UTC) (F)     (DEG/KT/KT) (MB)    (FT/S)
NORTHPORT PIER   1102   20     280/  5/ 14 1008.1
KEWAUNEE LAKESHO 1100   20     270/  7/  9 1008.7
SHEBOYGAN LAKESH 1100   22     280/ 12/ 15 1011.4F
PORT WASHINGTON  1040   24     260/  4/  7 1012.2F
MILWAUKEE LAKESH 1100   25     260/  8/ 11   N/A
KENOSHA   LAKESH 1100   25     250/  9/ 11 1011.9
$$

TC  - TEMPERATURE IN CELSIUS
VSB - VISIBILITY IN STATUTE MILES
WCI - WIND CHILL INDEX
HX  - HEAT INDEX





USA.gov is the U.S. government's official web portal to all federal, state and local government web resources and services.